Tracking 29892 objects as of 21-Nov-2024
HD Live streaming from Space Station
objects crossing your sky now

STARLINK-5935

Track STARLINK-5935 now!
10-day predictions
STARLINK-5935 is classified as:


NORAD ID: 56453
Int'l Code: 2023-064F
Perigee: 577.2 km
Apogee: 581.2 km
Inclination: 70.0 °
Period: 96.1 minutes
Semi major axis: 6950 km
RCS: Unknown
Launch date: May 10, 2023
Source: United States (US)
Launch site: AIR FORCE WESTERN TEST RANGE (AFWTR)
Your satellite tracking list
Your tracking list is empty




NASA's NSSDC Master Catalog

Two Line Element Set (TLE):
1 56453U 23064F   24325.83119178 -.00002130  00000-0 -17080-3 0  9999
2 56453  69.9998 259.3365 0002898 268.6359  91.4468 14.98318397 84629
Source of the keplerian elements: AFSPC